Theta_e
309 309 308 306 304 305 305 306 306 307 307 307 310 310 310 311 310 310 310 310 312 312 311 310 310 311 310 310 310 310 308 306 301 299 299 301 302 302 302 302 302 301 301
309 308 307 305 304 306 305 306 306 306 306 306 309 310 310 310 310 310 309 310 311 312 311 311 311 310 310 310 310 309 308 306 302 299 298 299 300 300 301 301 301 300 299
308 307 305 304 304 305 305 306 305 305 304 306 308 310 310 309 310 310 309 309 310 311 312 311 310 310 310 310 309 308 307 306 302 299 298 298 297 299 299 300 299 299 298
307 307 305 303 304 305 305 305 305 305 304 306 307 309 310 309 309 310 310 309 310 311 311 312 311 310 310 310 309 308 307 305 303 299 298 296 296 297 298 297 297 297 297
306 305 304 303 303 304 304 305 305 304 305 305 306 308 310 309 309 310 310 310 310 310 311 311 311 311 310 310 311 309 307 304 301 299 297 296 295 294 296 296 296 295 295
305 305 304 303 303 303 304 304 304 304 304 305 306 307 309 309 309 310 310 310 310 310 310 310 311 311 311 310 310 311 310 307 301 299 297 296 296 295 297 296 295 293 293
304 304 303 302 302 303 303 304 304 304 304 305 305 306 307 309 310 310 310 310 310 310 310 310 309 309 310 310 309 309 309 308 307 306 302 300 299 302 300 296 296 294 294
302 303 303 302 302 302 303 303 303 304 304 305 305 306 306 308 309 310 309 310 310 310 310 310 310 309 309 308 308 307 306 305 305 305 304 303 302 301 301 300 298 295 294
301 302 302 302 301 302 302 303 303 303 303 304 305 305 306 306 308 309 309 310 310 309 309 309 309 309 310 309 308 307 306 306 305 303 304 303 302 302 302 300 296 295 293
302 302 302 302 301 301 302 302 302 303 303 303 304 304 306 306 306 307 308 309 309 309 309 309 309 309 309 308 308 307 306 307 305 303 302 302 301 301 301 303 302 297 295
303 303 303 302 301 301 301 302 302 302 302 303 303 304 305 306 306 305 306 307 307 308 309 309 309 309 309 308 307 307 307 307 306 303 302 300 300 299 299 300 300 301 299
303 302 302 302 301 301 301 301 301 301 301 302 303 304 304 304 304 304 303 304 305 307 308 309 309 309 309 309 307 307 306 306 305 303 301 300 299 300 300 300 299 299 298
302 302 301 301 301 301 301 300 300 300 301 301 301 302 303 302 302 302 302 301 302 304 306 308 308 308 308 308 308 307 306 305 304 302 301 301 302 301 301 299 298 297 296
300 299 300 300 300 300 300 300 300 299 298 297 299 300 301 301 300 300 300 300 304 304 305 305 306 307 308 308 308 306 305 304 303 303 303 302 301 299 299 299 297 296 294
298 297 297 298 299 298 299 299 299 299 300 299 298 299 300 300 300 301 301 302 303 304 304 305 306 306 307 307 307 305 304 302 301 301 301 301 299 298 298 297 296 294 293
294 294 293 294 294 294 294 294 297 299 299 299 299 299 300 301 301 301 302 302 303 304 303 304 305 305 304 305 304 304 303 301 300 299 299 299 298 297 296 295 294 293 291
294 293 293 293 293 293 293 293 293 295 297 298 299 300 300 300 298 299 300 302 302 301 303 303 303 302 302 302 300 300 300 300 299 298 298 298 297 296 295 294 293 292 291
293 293 293 293 293 292 293 293 293 292 291 292 295 296 296 296 296 297 298 299 297 298 300 299 298 298 298 298 298 297 297 296 297 297 296 295 295 295 294 293 293 292 291
292 292 292 292 292 292 292 292 291 291 290 290 291 292 293 294 295 295 295 297 296 295 295 295 295 295 295 296 296 296 296 296 295 295 295 294 294 293 293 293 292 292 292
291 291 291 291 291 291 291 290 290 290 289 289 290 291 292 294 294 294 294 294 294 293 293 293 292 293 293 293 294 294 294 294 294 293 293 294 293 292 292 291 291 291 291
290 290 290 290 290 290 290 290 289 288 288 288 290 290 291 292 291 291 291 291 291 291 290 291 291 291 291 291 292 292 292 292 292 292 292 292 292 292 291 291 290 290 290
290 289 290 290 289 289 289 288 287 287 286 287 287 288 289 290 289 288 288 288 288 288 288 289 289 289 288 289 289 289 289 289 290 290 290 290 291 291 291 290 290 290 290
288 288 288 288 288 287 287 286 286 286 285 285 286 286 287 287 287 287 286 286 286 287 286 287 287 287 286 287 287 287 287 287 287 287 288 288 289 289 289 289 289 289 289
287 287 287 286 285 285 285 284 284 283 283 284 284 284 284 284 284 284 283 283 283 283 283 283 283 284 284 284 284 285 285 285 285 285 286 286 286 287 287 287 287 288 288
285 284 284 283 283 282 281 281 281 282 282 282 282 282 281 281 281 281 280 280 280 281 281 281 281 281 281 282 282 282 282 282 282 283 283 283 284 284 284 284 285 286 286
282 282 281 281 280 280 280 280 280 281 281 280 280 280 280 279 279 278 277 277 277 277 277 277 277 277 278 278 278 278 279 279 280 281 282 282 282 282 282 282 283 284 284
Wind_Speed
35 34 32 29 26 24 25 23 21 20 19 17 15 14 13 11 10 8 10 10 11 12 17 25 25 23 27 17 12 15 23 16 19 14 20 19 20 20 19 18 16 16 14
35 33 31 29 27 26 25 24 22 20 18 18 17 14 13 11 10 10 12 12 14 14 20 22 22 21 22 14 13 18 22 28 24 22 21 18 20 19 18 17 15 14 14
33 34 31 29 28 28 26 24 22 21 20 19 17 16 15 13 11 10 13 14 15 14 17 21 21 23 22 18 16 19 22 30 23 24 19 22 19 18 18 17 16 15 13
33 34 33 32 30 29 27 25 24 22 21 20 18 17 16 13 12 11 12 14 15 15 15 16 19 22 23 20 19 21 22 31 26 25 22 19 20 19 19 21 18 15 15
34 34 34 33 30 28 27 25 24 22 21 20 19 18 17 16 15 14 13 15 16 15 16 16 19 20 20 20 19 20 23 29 27 26 20 18 19 22 23 20 18 16 14
36 37 35 33 31 29 28 27 25 23 22 20 20 19 19 17 16 15 14 15 16 15 15 15 17 19 20 20 20 19 20 29 30 22 19 21 25 25 25 22 20 13 6
35 36 36 35 34 32 30 29 27 26 24 23 21 20 19 17 18 16 14 14 14 16 13 14 15 17 17 17 17 16 16 20 25 34 35 33 31 35 33 26 26 21 8
33 37 37 37 36 34 33 32 30 28 26 25 22 20 18 18 17 17 16 14 13 13 12 12 13 15 17 17 17 17 19 20 24 25 29 30 29 28 32 30 30 23 11
32 35 38 38 37 36 35 34 32 30 28 26 24 21 20 19 18 18 18 17 16 14 13 11 10 13 15 17 19 20 20 20 21 23 23 23 24 25 26 28 23 23 12
35 37 39 39 39 38 37 35 33 30 28 25 23 21 19 18 19 18 18 18 18 16 15 15 13 12 14 17 21 21 21 22 22 24 23 23 19 20 23 26 29 28 15
38 39 39 40 41 39 37 35 32 29 25 23 22 20 19 18 18 17 19 19 18 18 19 18 16 14 14 17 20 22 24 19 20 22 22 20 19 20 23 26 27 29 29
38 38 38 38 37 37 36 33 30 29 26 24 23 22 20 18 16 16 13 16 18 17 19 18 16 14 15 16 18 20 20 19 18 21 23 23 24 26 26 25 27 29 28
37 39 39 38 36 35 34 32 29 29 30 29 28 27 24 19 17 14 13 13 18 19 18 15 14 16 15 15 15 16 19 19 18 22 26 28 29 28 26 25 25 26 26
36 36 37 38 34 32 33 34 33 31 26 27 27 25 24 20 17 17 16 14 14 17 17 15 13 13 14 16 17 19 20 22 21 23 27 26 26 26 25 25 25 25 25
34 33 33 35 36 33 32 36 35 32 33 32 28 29 27 21 20 17 16 16 15 14 13 12 12 13 13 16 17 18 20 22 23 23 23 24 24 24 25 25 23 23 25
27 27 28 29 30 29 28 22 26 26 26 24 23 23 21 17 17 16 14 13 13 14 14 13 12 12 11 12 13 14 16 20 22 22 20 20 22 22 23 23 23 24 25
31 28 27 27 27 28 26 27 24 16 14 17 20 19 18 18 15 13 11 11 12 14 10 11 10 10 8 8 8 8 10 11 13 16 18 18 19 18 19 21 22 24 24
27 31 31 28 27 27 27 26 27 27 23 22 20 21 20 17 14 12 11 13 11 8 10 10 9 7 6 5 5 4 3 4 5 7 9 12 14 16 17 19 20 21 21
33 28 26 26 27 30 31 29 26 25 24 26 22 18 18 17 14 13 10 14 16 15 13 13 10 9 8 6 6 6 5 3 2 2 3 5 7 10 14 16 16 17 18
34 35 32 31 29 28 29 29 27 25 24 24 23 23 21 21 20 18 17 18 18 17 15 14 13 11 10 8 8 7 7 5 4 2 1 1 2 4 8 10 12 13 14
33 36 34 32 31 28 26 25 27 28 27 26 24 22 22 25 25 23 20 18 17 15 13 12 11 9 8 6 6 6 6 5 4 3 2 1 0 1 2 4 7 8 10
33 35 34 31 29 29 26 26 27 28 28 29 26 21 22 25 25 23 20 18 16 14 13 12 10 8 7 6 5 5 5 5 4 3 3 2 2 2 3 4 5 6 8
33 33 32 31 31 31 29 27 28 29 28 28 29 25 22 22 22 20 18 16 14 12 11 10 9 8 6 5 3 3 2 1 0 1 2 3 3 3 4 5 5 6 8
36 35 33 31 30 28 28 28 26 29 32 31 28 26 25 23 21 19 17 15 14 12 12 11 10 9 8 7 7 6 6 6 7 6 6 5 6 7 8 8 8 9 10
33 33 32 31 29 28 31 32 33 33 32 31 29 26 24 23 20 18 15 13 11 9 8 8 8 8 8 7 8 8 8 8 10 10 10 10 10 11 12 12 12 12 13
30 31 32 34 33 31 33 35 35 34 32 31 28 26 23 21 18 15 13 11 9 8 7 5 4 3 3 4 5 5 6 8 10 11 12 12 12 12 12 11 12 13 14
Wind_Direction
194 193 192 192 193 190 187 186 185 179 178 178 171 167 165 166 162 173 172 167 163 157 157 160 152 153 154 150 156 154 147 149 128 126 137 142 137 135 132 129 131 126 126
194 192 193 191 189 189 188 186 186 183 182 181 177 173 170 163 167 176 178 176 173 169 164 167 171 166 166 162 165 164 160 158 144 137 146 146 142 145 144 144 139 136 131
193 193 193 191 190 189 188 187 188 188 185 182 183 178 172 172 174 177 177 181 180 181 178 177 174 179 175 174 170 163 168 168 152 151 145 158 156 157 151 147 150 153 149
192 194 194 193 193 191 190 188 186 187 186 185 185 184 177 174 182 186 184 178 181 184 190 193 195 190 188 179 173 173 168 170 168 156 155 165 166 168 166 157 157 161 161
193 194 197 197 196 192 191 189 188 187 190 188 186 186 183 181 188 187 188 181 181 184 191 198 205 212 211 205 195 185 183 177 171 168 164 171 181 178 178 178 177 174 177
193 196 199 197 195 193 191 190 190 189 190 189 191 189 187 186 190 195 191 187 184 188 192 200 207 208 210 212 219 225 214 195 182 179 179 186 192 192 189 189 182 177 201
194 198 198 196 194 193 192 189 190 191 189 192 194 193 193 193 192 193 193 192 188 192 194 198 192 196 205 211 218 226 231 229 227 210 199 200 199 206 199 194 197 198 203
194 198 200 197 196 193 192 192 192 192 192 192 193 195 197 197 194 193 196 198 191 190 197 198 196 196 202 208 211 215 219 223 223 222 226 225 225 219 212 211 207 205 218
194 196 199 198 196 194 193 195 194 193 194 194 194 194 196 198 198 198 201 200 197 199 199 202 211 215 215 215 218 219 221 224 230 231 238 240 244 243 229 215 206 200 216
197 198 201 199 200 197 196 196 195 197 196 194 193 196 198 201 199 200 203 205 205 201 202 206 211 224 227 221 222 223 225 227 221 223 229 237 246 248 238 227 226 206 206
200 202 201 200 201 201 199 198 195 194 196 194 194 191 195 202 201 202 207 208 209 209 209 210 214 221 226 227 227 229 234 241 232 229 228 232 234 234 231 227 229 225 224
199 199 200 200 199 200 199 196 195 189 190 190 190 187 190 195 205 203 210 220 214 216 216 220 221 221 227 230 230 237 240 246 241 228 223 226 229 230 232 230 230 231 237
194 195 195 195 197 199 196 193 189 190 189 189 191 187 184 191 197 204 214 225 212 215 219 220 225 229 231 233 234 241 241 239 229 220 224 230 235 240 239 237 237 240 241
187 188 189 188 189 193 193 192 191 188 185 187 189 191 193 194 202 210 215 214 206 212 219 226 233 233 233 235 238 235 239 238 232 228 231 238 240 239 239 238 236 236 237
181 179 178 180 181 184 190 190 195 198 199 193 194 195 188 195 205 209 214 210 207 207 212 221 227 234 238 238 235 234 236 236 235 237 238 241 243 242 240 240 238 237 234
162 164 168 167 169 170 173 173 195 200 203 211 210 196 189 196 196 195 202 204 202 203 199 210 215 225 231 235 235 235 234 235 236 237 241 246 247 245 241 240 239 237 238
165 163 163 163 161 161 161 154 137 147 170 181 178 176 186 179 175 170 179 189 184 186 197 197 202 208 207 213 222 232 239 239 241 239 242 246 247 245 240 240 240 241 242
164 165 162 163 161 158 155 150 143 142 139 139 151 156 154 152 154 155 163 168 159 160 162 156 155 156 152 164 165 174 200 224 218 222 240 249 253 250 240 239 241 243 244
161 161 161 160 160 156 149 146 147 145 142 138 141 146 154 155 138 144 153 161 148 134 132 125 121 117 114 113 107 107 110 123 156 189 219 246 250 252 256 259 259 257 256
159 159 156 154 152 151 150 149 149 149 147 147 154 153 154 159 153 150 148 142 137 130 128 122 117 112 107 102 96 94 93 87 84 91 118 179 230 255 265 270 270 269 268
155 152 152 150 151 152 156 160 156 149 147 154 153 159 158 151 143 147 146 142 141 138 137 132 127 121 113 103 97 92 87 86 77 69 68 65 23 290 280 276 276 279 282
154 151 150 150 148 151 159 156 151 145 148 147 148 151 156 150 147 145 145 143 143 142 142 144 136 131 127 116 103 96 95 89 74 55 37 25 4 339 306 299 298 296 293
148 146 143 146 149 153 151 148 146 147 150 154 157 150 154 152 149 149 150 151 150 155 156 159 158 157 153 154 152 139 145 127 72 345 344 340 337 331 317 307 302 302 303
148 146 147 143 149 151 144 140 146 150 152 153 151 152 153 155 156 155 158 163 169 170 174 180 185 196 202 209 219 225 233 245 259 268 274 282 291 292 294 295 296 299 300
144 144 143 145 148 142 144 146 150 153 152 151 152 152 151 154 154 154 158 166 171 178 183 191 197 203 213 221 231 237 246 251 254 264 274 280 282 287 288 290 289 290 291
140 141 141 144 142 145 147 147 151 155 154 154 154 155 156 155 155 156 158 162 163 169 176 180 183 204 230 245 251 261 262 266 266 266 266 270 271 271 276 276 280 286 289